Regional Weather Roundup
Issued by NWS

Home | Current Version | Previous Version | Graphics & Text | Print | Product List | Glossary On
Versions: 1 2 3 4 5 6 7 8 9 10 11 12 13 14 15 16 17 18 19 20 21 22 23 24 25 26 27 28 29 30 31 32 33 34 35 36 37 38 39 40 41 42 43 44 45 46 47 48 49 50
000
ASUS43 KLMK 210410
RWRKY
KENTUCKY REGIONAL WEATHER ROUNDUP
NATIONAL WEATHER SERVICE LOUISVILLE KY
1200 AM EDT TUE APR 21 2015

NOTE "FAIR" INDICATES FEW OR NO CLOUDS BELOW 12,000 FEET
WITH NO SIGNIFICANT WEATHER AND/OR OBSTRUCTIONS TO VISIBILITY.

KYZ001>023-026-027-061>063-070>075-210500-
WESTERN AND SOUTH CENTRAL KENTUCKY

CITY           SKY/WX    TMP DP  RH WIND       PRES   REMARKS
PADUCAH        CLEAR     49  41  74 W3        29.89R
HENDERSON      PTCLDY    45  36  70 W3        29.86S
OWENSBORO      MOCLDY    51  41  69 CALM      29.87S
HOPKINSVILLE   MOCLDY    54  39  58 NW6       29.89R
BOWLING GREEN  CLOUDY    54  41  61 CALM      29.89R
GLASGOW        MOCLDY    51  43  75 CALM      29.88R
$$

KYZ024-025-028>034-038-045-046-053-210500-
NORTH CENTRAL KENTUCKY

CITY           SKY/WX    TMP DP  RH WIND       PRES   REMARKS
LOUISVILLE/SDF PTCLDY    51  35  54 W9        29.84R
LOUISVILLE/LOU PTCLDY    49  35  58 W6        29.85R
FORT KNOX      MOCLDY    47  37  70 SW3       29.84R
$$

KYZ035>037-039>044-047>052-055>060-089>105-210500-
NORTHEAST KENTUCKY

CITY           SKY/WX    TMP DP  RH WIND       PRES   REMARKS
LEXINGTON      MOCLDY    50  34  54 W13       29.83R
COVINGTON      CLOUDY    49  35  58 W7G16     29.79R
FRANKFORT      CLOUDY    50  34  54 W5        29.83R
$$

KYZ054-064>069-076>088-106>120-210500-
SOUTHEAST KENTUCKY

CITY           SKY/WX    TMP DP  RH WIND       PRES   REMARKS
JACKSON        CLOUDY    51  45  79 MISG      29.83R
LONDON         PTCLDY    51  46  83 SW3       29.85R
SOMERSET       MOCLDY    50  50 100 SW5       29.87R
MIDDLESBORO    PTCLDY    53  46  77 CALM      29.86R
MONTICELLO     MOCLDY    50  49  96 CALM      29.89R
$$




USA.gov is the U.S. government's official web portal to all federal, state and local government web resources and services.